Miscellaneous Local Product
Issued by NWS Hastings, NE

Home | Current Version | Previous Version | Graphics & Text | Print | Product List | Glossary On
Versions: 1 2 3 4 5 6 7 8 9 10 11 12 13 14 15 16 17 18 19 20 21 22 23 24 25 26 27 28 29 30 31 32 33 34 35 36 37 38 39 40 41 42 43 44 45 46 47 48 49 50
651
AXUS43 KGID 221202
MISGRI

GID CWA HOURLY WEATHER ROUNDUP
NATIONAL WEATHER SERVICE HASTINGS NE
600 AM CST WED FEB 22 2017

NOTE: "FAIR" INDICATES FEW OR NO CLOUDS BELOW 12,000 FEET WITH NO
SIGNIFICANT WEATHER AND/OR OBSTRUCTIONS TO VISIBILITY.

...SOUTH CENTRAL NEBRASKA...

CITY           SKY/WX    TMP DP  RH WIND       PRES   REMARKS
GRAND ISLAND   CLEAR     41  29  62 SW6       29.69R
HASTINGS       CLOUDY    42  26  53 SW5       29.68F
KEARNEY        CLEAR     37  25  60 NW6       29.70R WCI  33
ORD            CLEAR     35  28  75 NW3       29.67S
YORK           CLEAR     41  28  60 S9        29.68R
AURORA         CLEAR     43  28  54 SW10      29.67S
LEXINGTON      CLEAR     39  28  63 W15       29.73R WCI  31
HOLDREGE       CLEAR     42  25  50 W9        29.70R
HEBRON         CLOUDY    47  33  59 S16G22    29.68F

...NEBRASKA PANHANDLE...

CITY           SKY/WX    TMP DP  RH WIND       PRES   REMARKS
CHADRON        CLOUDY    42  32  67 W7        29.78R
ALLIANCE       CLEAR     35  29  78 W13       29.80F WCI  26
SCOTTSBLUFF    CLEAR     42  29  59 W20       29.85R
SIDNEY         CLEAR     38  29  70 NW16      29.84S WCI  29

...WESTERN AND NORTH CENTRAL NEBRASKA...

CITY           SKY/WX    TMP DP  RH WIND       PRES   REMARKS
VALENTINE      CLEAR     36  30  79 SW13      29.70F WCI  27
AINSWORTH      CLEAR     44  36  73 W10       29.71F
ONEILL         CLEAR     40  31  69 W8        29.67S
BROKEN BOW     CLEAR     49  26  41 NW21      29.71R
IMPERIAL       CLEAR     41  26  55 NW13      29.83S
NORTH PLATTE   CLEAR     32  25  75 W8        29.78R WCI  25
MCCOOK         CLEAR     46  22  38 NW17      29.78R

...EASTERN NEBRASKA...

CITY           SKY/WX    TMP DP  RH WIND       PRES   REMARKS
NORFOLK        CLEAR     40  30  67 SW5       29.64F
SO SIOUX CITY  CLEAR     37  31  78 E6        29.64F WCI  32
TEKAMAH        PTCLDY    37  32  82 S3        29.67F
COLUMBUS       CLEAR     36  28  75 CALM      29.66F
ALBION         CLEAR     37  29  73 CALM      29.66S
OMAHA EPPLEY   CLEAR     46  35  65 SE12      29.68F
MILLARD        CLEAR     49  36  62 SE3       29.68F
LINCOLN        CLEAR     41  33  73 SE6       29.69F
NEBRASKA CITY  CLEAR     46  30  53 S7        29.72F
BEATRICE       CLEAR     47  35  62 S6        29.70F
FALLS CITY     PTCLDY    48  34  58 S8        29.73F

...NORTHERN KANSAS...

CITY           SKY/WX    TMP DP  RH WIND       PRES   REMARKS
GOODLAND       CLOUDY    50  19  29 SW15      29.80S
HILL CITY      MOCLDY    43  24  47 CALM      29.75R
NORTON         SUNNY     43  16  33 W7        29.73S
PHILLIPSBURG   CLEAR     48  25  40 SW8       29.72S
SMITH CENTER   CLEAR     45  27  49 CALM      29.72F
HAYS             N/A     42  26  53 S7        29.77S
RUSSELL        CLOUDY    46  30  53 SW14      29.75S
CONCORDIA      CLOUDY    52  35  52 S22       29.70F
SALINA         PTCLDY    55  35  47 S14       29.75F
TOPEKA         PTCLDY    47  34  60 W5        29.79F



USA.gov is the U.S. government's official web portal to all federal, state and local government web resources and services.